WELCOME TO AIR WEST FLIGHT SUPPORT

Slider

THE RIGHT CHOICE FOR THE BEST SERVICE

OUR GOAL IS TO BE THE MOST ACCOMMODATING FBO IN LETHBRIDGE, AB. WITH EFFICIENT AND PROFFESSIONAL SERVICE

 WE HAVE GOT IT ALL!

  • Great Attitude
  • The Right Equipment
  • Large Facilities
  • Competitive Fuel Prices
  • In-House Aircraft Maintenance
  • In-House Flight Training, Aircraft Rentals
  • Aircraft Sales And Much  More!

Facebook By Weblizar Powered By Weblizar

 


We are located at the Lethbridge County Airport (CYQL) on Ramp 2 at the east end of Taxiway C.   Lethbridge is a key point of entry where you can clear customs using
CANPASS.  The Airport is approximately 5 km south of the City of Lethbridge, which offers convenient access to nearby towns such as Cardston, Crowsnest Pass, Coaldale, Fort MacLeod, Milk River, Pincher Creek and Taber.  Lethbridge and its surrounding area is a great tourist destination

 


Click on image to enlarge

Available data for CYQL from the past 2 hours
LETHBRIDGE VOR, AB
Metar
CYQL 181900Z 26028G37KT 60SM FEW060 FEW140 BKN250 02/M05 A3000 RMK SC1AC1CI5 SC TR SLP216

19:00 UTC

Wind: 260° 28kt

Visibility: 60 SM

Sky: FEW 6000 ft

Temp: 2 deg C / 35.6 deg F

Dewpoint: -5 deg C / 23 deg F

Pressure: 30 inHg

TAF
TAF CYQL 181738Z 1818/1906 26025G35KT P6SM FEW060 SCT140 BKN260 RMK NXT FCST BY 190000Z